Location: Newark
(34.0131°N, 4.3314°W)
Time: 23:28:02
(UTC+00:00)

Explorer 11/Cluster Stage 4 - Pass Details

Date: 01 November 2019
Orbit: 467 x 1259 km, 28.8° (Epoch: 14 November)

Event Time Altitude Azimuth Distance (km) Brightness Sun altitude
Rises 02:49:03 0° 227° (SW) 4,010 - -47.3°
Reaches altitude 10° 02:52:29 10° 216° (SW) 2,942 - -46.6°
Maximum altitude 02:58:23 27° 162° (SSE) 1,752 - -45.4°
Exits shadow 03:02:57 12° 108° (ESE) 2,358 9.4 -44.5°
Drops below altitude 10° 03:03:24 10° 105° (ESE) 2,477 9.6 -44.4°
Sets 03:06:03 0° 94° (E) 3,276 10.5 -43.9°
